TimeMDT,TemperatureF,Dew PointF,Humidity,Sea Level PressureIn,VisibilityMPH,Wind Direction,Wind SpeedMPH,Gust SpeedMPH,PrecipitationIn,Events,Conditions,WindDirDegrees,DateUTC
12:12 AM,39.2,21.2,49,30.04,10.0,NNW,9.2,-,N/A,,Clear,330,2013-10-09 06:12:00
12:32 AM,37.4,21.2,52,30.04,10.0,Calm,Calm,-,N/A,,Clear,0,2013-10-09 06:32:00
12:52 AM,39.2,21.2,49,30.05,10.0,Calm,Calm,-,N/A,,Clear,0,2013-10-09 06:52:00
1:12 AM,37.4,21.2,52,30.05,10.0,Calm,Calm,-,N/A,,Clear,0,2013-10-09 07:12:00
1:31 AM,33.8,19.4,56,30.05,10.0,NW,8.1,-,N/A,,Clear,320,2013-10-09 07:31:00
1:52 AM,35.6,21.2,56,30.05,10.0,NNW,5.8,-,N/A,,Clear,340,2013-10-09 07:52:00
2:12 AM,33.8,21.2,60,30.05,10.0,NW,6.9,-,N/A,,Clear,320,2013-10-09 08:12:00
2:32 AM,33.8,21.2,60,30.05,10.0,NW,9.2,-,N/A,,Clear,320,2013-10-09 08:32:00
2:52 AM,35.6,21.2,56,30.06,10.0,NNW,8.1,-,N/A,,Clear,340,2013-10-09 08:52:00
3:12 AM,35.6,21.2,56,30.05,10.0,NNW,10.4,-,N/A,,Clear,330,2013-10-09 09:12:00
3:32 AM,33.8,21.2,60,30.05,10.0,NNW,8.1,-,N/A,,Scattered Clouds,340,2013-10-09 09:32:00
3:52 AM,33.8,21.2,60,30.05,10.0,NNW,6.9,-,N/A,,Clear,330,2013-10-09 09:52:00
4:12 AM,33.8,21.2,60,30.05,10.0,NW,9.2,-,N/A,,Clear,320,2013-10-09 10:12:00
4:32 AM,32.0,21.2,64,30.05,10.0,NW,8.1,-,N/A,,Clear,320,2013-10-09 10:32:00
4:52 AM,33.8,21.2,60,30.05,10.0,NW,9.2,-,N/A,,Clear,320,2013-10-09 10:52:00
5:11 AM,32.0,21.2,64,30.05,10.0,NNW,6.9,-,N/A,,Clear,340,2013-10-09 11:11:00
5:32 AM,32.0,21.2,64,30.05,10.0,NNW,10.4,-,N/A,,Clear,330,2013-10-09 11:32:00
5:52 AM,32.0,21.2,64,30.05,10.0,NW,8.1,-,N/A,,Clear,320,2013-10-09 11:52:00
6:12 AM,32.0,21.2,64,30.06,10.0,NNW,9.2,-,N/A,,Clear,330,2013-10-09 12:12:00
6:32 AM,32.0,21.2,64,30.06,10.0,NW,8.1,-,N/A,,Clear,310,2013-10-09 12:32:00
6:51 AM,30.2,21.2,69,30.07,10.0,NNW,8.1,-,N/A,,Clear,330,2013-10-09 12:51:00
7:12 AM,30.2,21.2,69,30.07,10.0,NW,4.6,-,N/A,,Clear,320,2013-10-09 13:12:00
7:32 AM,30.2,21.2,69,30.07,10.0,NW,5.8,-,N/A,,Clear,320,2013-10-09 13:32:00
7:51 AM,33.8,23.0,65,30.08,10.0,NNW,6.9,-,N/A,,Clear,340,2013-10-09 13:51:00
8:12 AM,39.2,23.0,52,30.09,10.0,North,4.6,-,N/A,,Clear,350,2013-10-09 14:12:00
8:32 AM,39.2,23.0,52,30.09,10.0,NW,4.6,-,N/A,,Clear,320,2013-10-09 14:32:00
8:52 AM,42.8,24.8,49,30.09,10.0,NW,4.6,-,N/A,,Clear,320,2013-10-09 14:52:00
9:12 AM,44.6,24.8,46,30.09,10.0,Calm,Calm,-,N/A,,Clear,0,2013-10-09 15:12:00
9:32 AM,46.4,24.8,43,30.10,10.0,SSE,3.5,-,N/A,,Clear,160,2013-10-09 15:32:00
9:52 AM,50.0,26.6,40,30.09,10.0,South,9.2,-,N/A,,Clear,170,2013-10-09 15:52:00
10:12 AM,-9999,-9999,N/A,-9999,-9999.0,North,-9999.0,-,N/A,,Unknown,0,2013-10-09 16:12:00
10:32 AM,-9999,-9999,N/A,-9999,-9999.0,North,-9999.0,-,N/A,,Unknown,0,2013-10-09 16:32:00
10:52 AM,-9999,-9999,N/A,-9999,-9999.0,North,-9999.0,-,N/A,,Unknown,0,2013-10-09 16:52:00
11:12 AM,55.4,26.6,33,-9999,-9999.0,North,-9999.0,-,N/A,,Clear,0,2013-10-09 17:12:00
11:32 AM,55.4,26.6,33,30.09,10.0,South,9.2,-,N/A,,Clear,180,2013-10-09 17:32:00
11:52 AM,57.2,26.6,31,30.09,10.0,South,9.2,-,N/A,,Clear,170,2013-10-09 17:52:00
12:12 PM,-9999,-9999,N/A,-9999,-9999.0,North,-9999.0,-,N/A,,Unknown,0,2013-10-09 18:12:00
12:32 PM,-9999,-9999,N/A,-9999,-9999.0,North,-9999.0,-,N/A,,Unknown,0,2013-10-09 18:32:00
12:52 PM,-9999,-9999,N/A,-9999,-9999.0,North,-9999.0,-,N/A,,Unknown,0,2013-10-09 18:52:00
1:12 PM,60.8,23.0,23,30.04,10.0,South,12.7,16.1,N/A,,Unknown,180,2013-10-09 19:12:00
1:32 PM,60.8,23.0,23,30.03,10.0,SW,6.9,-,N/A,,Clear,230,2013-10-09 19:32:00
1:52 PM,62.6,24.8,24,30.02,10.0,South,12.7,17.3,N/A,,Scattered Clouds,180,2013-10-09 19:52:00
2:11 PM,60.8,23.0,23,30.01,10.0,Calm,Calm,-,N/A,,Scattered Clouds,0,2013-10-09 20:11:00
2:32 PM,64.4,23.0,21,30.00,10.0,SE,8.1,-,N/A,,Scattered Clouds,130,2013-10-09 20:32:00
2:52 PM,62.6,21.2,20,30.00,10.0,SSE,3.5,-,N/A,,Scattered Clouds,150,2013-10-09 20:52:00
3:12 PM,64.4,19.4,18,29.99,10.0,South,12.7,21.9,N/A,,Scattered Clouds,190,2013-10-09 21:12:00
3:32 PM,64.4,17.6,16,29.99,10.0,SSW,12.7,19.6,N/A,,Mostly Cloudy,210,2013-10-09 21:32:00
3:52 PM,64.4,17.6,16,29.99,10.0,West,16.1,-,N/A,,Scattered Clouds,260,2013-10-09 21:52:00
4:11 PM,64.4,17.6,16,30.00,10.0,SW,6.9,12.7,N/A,,Scattered Clouds,230,2013-10-09 22:11:00
4:32 PM,60.8,17.6,19,30.00,10.0,West,10.4,-,N/A,,Clear,260,2013-10-09 22:32:00
4:52 PM,60.8,17.6,19,30.00,10.0,West,12.7,-,N/A,,Clear,260,2013-10-09 22:52:00
5:12 PM,60.8,17.6,19,30.00,10.0,West,11.5,-,N/A,,Clear,260,2013-10-09 23:12:00
5:32 PM,60.8,17.6,19,30.00,10.0,WSW,8.1,-,N/A,,Clear,250,2013-10-09 23:32:00
5:52 PM,59.0,19.4,22,30.00,10.0,WSW,9.2,-,N/A,,Clear,250,2013-10-09 23:52:00
6:11 PM,59.0,19.4,22,30.01,10.0,West,9.2,-,N/A,,Clear,260,2013-10-10 00:11:00
6:32 PM,55.4,21.2,26,30.02,10.0,WSW,9.2,-,N/A,,Clear,250,2013-10-10 00:32:00
6:52 PM,53.6,21.2,28,30.02,10.0,WSW,5.8,-,N/A,,Clear,240,2013-10-10 00:52:00
7:12 PM,51.8,21.2,30,30.02,10.0,Calm,Calm,-,N/A,,Clear,0,2013-10-10 01:12:00
7:32 PM,46.4,19.4,34,30.02,10.0,ENE,5.8,-,N/A,,Clear,60,2013-10-10 01:32:00
7:52 PM,44.6,19.4,37,30.02,10.0,NE,6.9,-,N/A,,Clear,40,2013-10-10 01:52:00
8:12 PM,46.4,19.4,34,30.02,10.0,WSW,4.6,-,N/A,,Clear,250,2013-10-10 02:12:00
8:32 PM,42.8,19.4,39,30.03,10.0,North,6.9,-,N/A,,Clear,360,2013-10-10 02:32:00
8:52 PM,42.8,19.4,39,30.03,10.0,North,6.9,-,N/A,,Clear,360,2013-10-10 02:52:00
9:12 PM,41.0,19.4,42,30.04,10.0,East,6.9,-,N/A,,Clear,80,2013-10-10 03:12:00
9:32 PM,42.8,19.4,39,30.05,10.0,Calm,Calm,-,N/A,,Clear,0,2013-10-10 03:32:00
9:52 PM,39.2,21.2,49,30.06,10.0,Calm,Calm,-,N/A,,Scattered Clouds,0,2013-10-10 03:52:00
10:12 PM,41.0,19.4,42,30.07,10.0,East,9.2,-,N/A,,Scattered Clouds,80,2013-10-10 04:12:00
10:32 PM,42.8,19.4,39,30.07,10.0,SSE,4.6,-,N/A,,Scattered Clouds,150,2013-10-10 04:32:00
10:52 PM,42.8,19.4,39,30.07,10.0,NE,3.5,-,N/A,,Overcast,50,2013-10-10 04:52:00
11:12 PM,44.6,21.2,39,30.07,10.0,ESE,4.6,-,N/A,,Overcast,110,2013-10-10 05:12:00
11:32 PM,42.8,23.0,46,30.08,10.0,Calm,Calm,-,N/A,,Overcast,0,2013-10-10 05:32:00
11:52 PM,42.8,23.0,46,30.09,10.0,ESE,8.1,-,N/A,,Overcast,120,2013-10-10 05:52:00